Wind_Speed
9 9 8 8 9 9 9 9 10 11 13 14 15 15 16 17 19 20 20 20 20 20 21 21 21 22 22 23 23 23 23 24 24 24 24 24 25 25 26 26 26 26 25
9 8 8 8 8 8 9 9 10 11 12 13 15 16 17 17 18 19 20 20 21 21 21 22 22 23 23 23 23 24 24 25 25 25 25 26 26 27 28 28 28 28 28
9 8 8 9 7 8 9 9 9 10 10 12 13 14 15 17 17 18 18 19 20 20 22 22 22 22 23 23 24 25 25 25 26 27 28 29 29 29 30 30 30 30 31
8 8 8 8 8 8 9 10 10 10 11 12 12 13 14 15 16 17 17 19 20 20 22 23 23 23 23 24 25 26 27 27 28 29 30 31 31 31 32 33 33 33 33
8 8 8 9 8 9 9 9 10 10 11 11 12 12 12 13 14 16 17 18 19 20 21 22 23 23 24 24 26 27 28 29 29 30 31 32 32 32 32 34 34 35 34
8 8 9 9 9 9 10 11 11 11 11 11 11 12 12 13 14 15 16 16 17 19 20 21 21 23 24 25 26 28 28 28 29 30 31 32 32 32 32 33 34 34 35
8 9 9 10 10 11 11 11 11 11 11 11 11 12 13 13 14 15 16 17 18 20 21 22 23 23 24 25 26 27 27 27 29 30 31 31 32 31 32 34 35 36 37
10 10 10 10 11 11 11 11 11 11 10 10 10 11 12 13 14 15 17 18 19 20 21 22 23 24 25 25 26 26 27 28 29 31 31 31 31 33 34 35 36 37 37
11 11 11 11 11 12 12 12 12 11 11 11 12 13 13 13 14 15 16 18 19 20 21 22 24 24 25 26 27 28 28 28 29 30 31 33 34 35 35 35 36 37 38
12 12 12 12 12 12 12 13 13 12 12 12 13 14 14 15 16 17 17 18 18 19 21 22 24 25 26 27 27 28 28 29 30 31 33 34 34 34 35 35 36 37 38
13 13 13 13 13 14 14 14 14 14 14 14 14 14 14 15 16 17 18 19 20 21 22 23 24 25 26 27 28 28 29 30 31 32 32 33 34 34 35 36 37 38 39
14 14 14 14 14 15 15 15 15 15 15 15 15 15 15 16 16 17 18 19 20 21 22 22 23 24 25 26 27 28 30 30 31 31 32 32 33 34 35 36 37 38 40
15 16 16 15 15 15 15 15 15 15 16 16 16 16 17 17 18 19 19 20 20 20 21 23 24 25 26 27 28 29 30 30 30 31 32 32 33 34 35 36 37 39 40
16 17 16 16 16 17 17 16 16 17 17 17 17 18 18 19 19 20 20 21 21 22 22 24 25 25 26 27 28 29 30 31 31 32 33 34 35 36 37 38 40 41 42
17 17 18 18 18 18 18 18 18 17 18 18 19 20 20 20 20 21 21 22 22 23 24 25 25 26 27 28 29 30 31 32 32 33 34 36 37 37 38 40 40 40 40
18 18 18 18 18 18 18 17 17 18 19 19 20 21 21 21 21 21 21 22 23 24 25 25 27 27 28 29 30 31 32 33 34 35 36 36 37 37 38 39 39 40 40
18 18 18 18 18 18 18 18 18 19 20 20 21 21 21 22 22 22 23 24 24 25 25 27 28 29 30 30 31 32 33 33 34 35 36 36 36 37 38 39 39 39 39
18 18 18 18 18 18 18 19 19 20 20 21 21 21 22 22 23 23 24 25 25 26 27 29 29 30 30 31 31 32 33 33 34 35 35 36 37 38 38 38 38 38 38
19 18 19 18 18 19 19 19 20 21 21 22 22 22 22 23 24 25 26 27 28 29 29 30 30 31 31 32 32 33 33 34 35 35 36 37 37 38 38 37 36 36 36
19 19 19 18 18 19 19 20 21 21 22 23 23 24 24 25 26 27 28 29 29 30 30 31 31 32 32 32 32 33 33 34 35 35 36 36 37 36 35 35 34 34 34
19 19 19 19 19 19 20 21 22 22 23 24 25 25 26 27 28 28 29 29 29 29 30 31 31 31 32 32 32 33 33 33 34 34 34 34 35 34 33 33 33 33 33
19 19 20 20 20 21 22 23 23 24 23 24 26 27 27 28 28 28 28 28 28 29 30 31 31 31 31 31 31 32 32 33 33 33 33 33 33 32 32 32 31 31 31
20 20 20 20 21 22 23 24 24 24 25 26 27 27 27 28 28 28 28 29 29 30 31 31 31 31 31 31 31 32 32 32 32 32 32 32 31 30 30 29 29 29 28
19 20 20 21 22 22 23 24 24 25 26 26 26 27 27 27 28 29 29 30 30 31 31 31 31 31 31 31 31 31 31 31 31 31 30 30 29 29 28 28 28 27 27
19 19 19 20 21 22 23 24 24 25 25 26 26 27 27 28 29 29 30 30 31 31 31 31 31 31 31 31 31 31 30 30 30 29 28 28 28 27 27 27 27 26 26
19 19 20 21 22 22 23 24 24 25 26 26 26 27 28 29 29 30 31 31 32 32 32 32 32 31 30 30 30 29 29 28 28 27 27 26 26 25 25 25 25 24 25
Wind_Direction
307 310 306 292 275 271 270 269 265 260 261 258 255 255 252 250 248 248 250 251 251 252 252 252 254 257 258 259 262 263 264 264 265 268 268 269 268 268 267 269 270 271 273
307 308 311 303 278 269 274 278 275 269 265 262 257 257 256 251 250 251 250 253 251 252 254 256 257 260 261 261 264 266 267 266 266 268 269 271 271 271 270 268 268 269 272
304 303 308 302 282 272 277 280 285 281 275 273 264 258 256 254 251 250 252 256 253 253 256 259 261 264 264 263 266 267 269 269 270 270 271 272 272 271 271 269 267 268 270
308 309 308 305 289 285 293 287 289 285 279 276 269 262 260 256 253 253 256 260 257 258 259 259 261 263 265 265 266 269 272 273 273 273 273 275 274 273 271 271 269 269 271
304 309 310 309 300 296 297 291 289 285 279 278 274 267 265 263 260 260 260 263 261 260 260 260 262 264 266 268 270 274 275 275 274 274 274 276 276 274 272 272 273 272 272
306 307 310 309 303 298 298 296 293 289 284 284 279 269 268 267 265 267 265 265 264 265 264 264 267 270 271 273 275 277 277 277 276 276 277 277 277 275 274 274 274 274 274
309 307 308 307 303 301 298 295 292 290 286 285 279 276 274 273 270 272 273 270 268 269 267 266 268 272 274 276 278 279 277 277 277 277 277 279 279 277 277 277 277 276 277
301 302 306 306 303 304 305 300 295 295 291 289 289 289 284 280 277 276 277 273 271 270 268 268 269 271 273 277 279 279 278 279 279 279 278 279 280 281 280 279 279 279 279
297 298 300 300 302 306 306 305 301 299 296 293 291 288 287 286 283 279 279 279 276 273 272 272 272 275 276 278 279 280 280 280 281 281 281 282 281 281 281 280 280 280 281
294 294 294 295 297 301 304 306 304 303 302 299 296 292 290 291 288 283 284 283 281 279 278 277 277 278 280 280 281 281 282 284 285 285 284 283 283 282 282 283 283 283 282
292 292 291 292 293 296 298 301 301 301 299 299 297 296 293 293 290 285 285 286 284 282 281 282 281 281 282 283 284 285 285 286 286 286 286 286 286 285 285 285 285 285 285
288 290 290 291 291 292 295 297 297 297 297 297 294 295 296 295 295 293 290 290 290 288 285 285 285 286 287 287 287 287 287 288 289 289 289 290 289 288 287 287 287 287 287
285 286 286 287 289 292 294 295 295 294 294 294 294 295 295 298 299 298 297 294 293 292 289 288 287 288 289 289 289 290 292 293 292 292 291 291 291 290 290 290 290 290 290
285 285 285 286 288 291 293 293 293 292 292 294 294 295 296 297 297 297 296 294 293 291 291 291 292 292 292 291 292 293 294 294 293 292 292 292 292 292 291 291 292 292 292
284 286 288 289 290 290 291 292 290 289 290 292 293 294 295 296 296 296 295 294 293 294 293 293 293 294 294 294 294 295 295 295 294 294 294 294 294 294 293 293 294 294 294
282 285 287 287 287 289 289 290 289 289 291 293 294 293 294 294 294 293 293 293 293 293 292 293 294 295 295 295 295 295 295 295 294 295 295 296 296 296 296 296 296 296 296
282 286 287 286 286 287 288 289 290 291 293 293 294 295 295 294 294 295 295 294 294 294 295 296 297 296 296 296 296 296 296 296 296 296 297 297 297 297 297 297 297 297 297
283 285 285 285 286 286 287 288 290 292 293 293 294 295 296 295 296 297 297 297 297 297 297 297 297 297 297 297 297 297 297 297 297 298 299 299 299 299 300 299 299 298 299
283 285 285 285 285 286 288 290 292 293 293 293 293 294 296 296 297 297 297 297 296 296 296 297 297 297 297 297 297 298 298 298 299 299 300 300 301 302 302 301 301 301 301
281 283 283 283 285 286 287 289 292 293 294 294 293 294 296 296 297 297 297 298 298 297 297 298 298 298 297 297 298 298 298 299 300 301 302 303 304 304 304 303 303 304 304
279 280 281 283 285 288 289 290 291 293 294 294 292 293 295 297 297 297 298 298 298 297 298 299 300 299 299 299 299 300 300 302 303 304 304 305 306 306 306 305 305 306 307
279 279 280 283 286 288 290 291 292 293 294 295 294 295 296 297 298 299 299 300 300 301 301 301 301 301 301 301 302 303 303 304 305 305 305 306 307 307 308 308 308 308 309
280 280 282 283 284 286 289 291 293 294 295 296 296 296 297 298 299 300 301 301 301 302 303 303 303 302 302 302 303 304 305 306 306 307 307 307 307 308 308 309 311 311 312
281 281 283 284 285 287 288 291 293 294 296 297 297 298 298 299 300 301 303 303 303 303 304 305 304 303 303 303 303 304 305 306 307 307 308 308 308 309 309 310 311 312 313
281 282 284 285 286 289 291 293 294 295 296 297 298 299 300 300 301 302 304 305 304 304 304 304 304 304 303 303 303 304 305 307 308 309 309 310 310 310 311 312 313 313 314
281 282 284 287 289 291 294 294 294 295 296 298 300 300 301 301 302 303 304 304 304 304 304 304 304 304 304 304 304 305 306 308 309 310 311 312 313 314 314 315 316 316 316
Height
5859 5858 5857 5856 5856 5855 5856 5855 5855 5855 5855 5855 5855 5856 5856 5857 5857 5858 5860 5861 5862 5863 5864 5865 5865 5865 5866 5866 5866 5866 5866 5866 5866 5866 5865 5864 5863 5862 5862 5861 5860 5859 5858
5857 5856 5855 5854 5853 5853 5853 5853 5852 5851 5851 5851 5851 5851 5852 5852 5853 5854 5855 5856 5857 5858 5858 5859 5860 5860 5860 5860 5860 5860 5860 5859 5860 5859 5858 5858 5857 5856 5855 5854 5853 5852 5851
5855 5854 5853 5852 5851 5851 5850 5850 5849 5848 5848 5848 5847 5847 5847 5848 5849 5849 5850 5851 5851 5852 5853 5854 5854 5854 5854 5854 5854 5854 5853 5853 5852 5852 5851 5850 5849 5848 5847 5846 5845 5844 5842
5853 5852 5851 5850 5849 5848 5848 5846 5846 5845 5845 5844 5844 5843 5843 5843 5844 5845 5846 5846 5846 5847 5847 5848 5848 5848 5848 5848 5848 5847 5847 5846 5845 5844 5843 5842 5841 5840 5839 5837 5836 5835 5834
5851 5850 5849 5848 5847 5846 5845 5844 5843 5842 5842 5841 5840 5840 5840 5840 5840 5840 5841 5840 5841 5841 5841 5842 5842 5842 5842 5841 5841 5840 5839 5839 5838 5837 5836 5834 5833 5831 5830 5828 5827 5825 5824
5848 5848 5847 5846 5845 5844 5843 5842 5840 5839 5838 5837 5837 5837 5837 5836 5836 5836 5835 5835 5835 5835 5836 5836 5836 5835 5835 5835 5834 5833 5832 5831 5830 5829 5827 5826 5824 5822 5821 5819 5818 5816 5815
5847 5846 5845 5844 5843 5841 5840 5839 5837 5836 5835 5834 5833 5833 5833 5833 5832 5831 5831 5830 5830 5830 5830 5830 5830 5830 5829 5828 5827 5826 5825 5824 5823 5821 5819 5817 5815 5813 5811 5810 5808 5806 5804
5844 5843 5842 5841 5840 5839 5837 5835 5834 5833 5832 5831 5831 5830 5830 5829 5828 5827 5826 5825 5825 5825 5824 5824 5824 5823 5823 5822 5821 5819 5817 5816 5814 5812 5811 5809 5806 5804 5802 5800 5798 5796 5793
5840 5839 5839 5838 5837 5836 5834 5833 5831 5830 5829 5828 5827 5827 5826 5825 5823 5822 5821 5820 5819 5819 5818 5818 5817 5817 5816 5815 5813 5812 5810 5808 5806 5804 5802 5800 5797 5795 5792 5790 5787 5785 5782
5837 5836 5835 5835 5834 5833 5831 5830 5829 5827 5826 5825 5824 5823 5821 5820 5819 5818 5817 5815 5814 5813 5812 5811 5811 5810 5809 5807 5805 5803 5802 5800 5798 5795 5793 5790 5787 5785 5782 5779 5777 5774 5772
5833 5832 5832 5831 5830 5829 5828 5827 5825 5824 5823 5822 5820 5819 5817 5816 5815 5813 5812 5810 5809 5808 5807 5805 5804 5802 5801 5799 5797 5795 5793 5791 5788 5786 5783 5780 5777 5774 5772 5769 5766 5763 5760
5829 5828 5828 5827 5826 5825 5824 5823 5822 5820 5819 5818 5816 5815 5813 5812 5810 5808 5807 5805 5804 5802 5801 5799 5797 5796 5794 5792 5789 5787 5784 5782 5779 5776 5773 5770 5767 5764 5761 5758 5755 5752 5749
5825 5824 5823 5822 5822 5821 5820 5819 5818 5816 5815 5814 5812 5811 5809 5807 5805 5804 5802 5800 5798 5796 5794 5792 5790 5788 5786 5784 5781 5779 5776 5773 5770 5767 5764 5761 5758 5754 5751 5747 5744 5740 5736
5820 5819 5818 5818 5817 5816 5815 5814 5813 5811 5810 5809 5807 5806 5804 5802 5800 5799 5797 5795 5793 5790 5788 5786 5784 5781 5779 5776 5773 5770 5767 5764 5761 5757 5754 5751 5747 5744 5740 5736 5732 5728 5724
5815 5814 5814 5813 5812 5811 5810 5809 5807 5806 5805 5804 5802 5801 5799 5797 5795 5793 5791 5789 5786 5784 5782 5779 5777 5774 5771 5768 5765 5761 5758 5755 5751 5748 5744 5740 5737 5733 5729 5724 5720 5716 5712
5810 5809 5808 5807 5806 5805 5804 5803 5802 5801 5800 5798 5797 5795 5793 5791 5789 5787 5784 5782 5779 5777 5774 5772 5769 5766 5763 5759 5756 5753 5749 5746 5742 5738 5734 5730 5726 5721 5717 5713 5708 5704 5700
5804 5803 5802 5802 5801 5800 5799 5798 5797 5795 5794 5792 5790 5788 5787 5785 5782 5780 5778 5775 5772 5769 5767 5764 5760 5757 5754 5751 5747 5744 5740 5736 5732 5728 5724 5720 5715 5711 5706 5702 5697 5692 5688
5798 5798 5797 5796 5795 5794 5793 5792 5791 5790 5788 5786 5784 5782 5780 5778 5775 5773 5770 5767 5765 5762 5759 5755 5752 5749 5745 5742 5738 5734 5730 5726 5722 5718 5714 5709 5705 5700 5695 5690 5686 5681 5677
5792 5792 5791 5790 5789 5788 5787 5786 5784 5783 5781 5779 5777 5775 5773 5770 5768 5765 5762 5760 5757 5753 5750 5747 5743 5740 5736 5733 5729 5725 5721 5717 5713 5708 5704 5699 5694 5689 5684 5680 5675 5671 5666
5786 5786 5785 5784 5783 5782 5781 5780 5778 5776 5774 5772 5770 5768 5766 5763 5760 5757 5754 5751 5748 5744 5741 5738 5734 5731 5727 5723 5719 5715 5711 5707 5703 5698 5694 5689 5684 5679 5674 5670 5665 5661 5657
5780 5780 5779 5778 5777 5776 5774 5773 5771 5769 5767 5765 5763 5760 5758 5755 5752 5749 5746 5743 5739 5736 5732 5729 5725 5721 5717 5714 5710 5706 5702 5697 5693 5689 5684 5679 5675 5670 5665 5661 5656 5652 5648
5774 5774 5773 5772 5770 5769 5768 5766 5764 5762 5760 5758 5755 5753 5750 5747 5744 5741 5737 5734 5731 5727 5723 5720 5716 5712 5708 5705 5701 5697 5692 5688 5684 5680 5675 5671 5666 5661 5657 5653 5648 5644 5640
5767 5767 5766 5765 5764 5763 5761 5759 5757 5755 5752 5750 5747 5744 5741 5738 5735 5732 5729 5726 5722 5718 5715 5711 5707 5703 5700 5696 5692 5688 5684 5680 5675 5671 5667 5662 5658 5653 5649 5645 5641 5637 5633
5761 5760 5760 5758 5757 5756 5754 5752 5750 5748 5745 5742 5739 5736 5734 5731 5728 5724 5721 5717 5713 5710 5706 5702 5699 5695 5691 5687 5683 5679 5675 5671 5667 5663 5658 5654 5650 5646 5642 5638 5634 5630 5626
5755 5754 5753 5752 5750 5749 5747 5745 5743 5740 5737 5735 5732 5729 5726 5723 5720 5716 5713 5709 5705 5701 5697 5694 5690 5686 5682 5679 5675 5671 5667 5663 5659 5655 5651 5647 5643 5639 5635 5631 5627 5623 5619
5749 5748 5747 5745 5744 5742 5740 5737 5735 5733 5730 5727 5724 5721 5718 5715 5711 5708 5704 5700 5696 5692 5688 5685 5681 5677 5674 5670 5667 5663 5659 5655 5651 5648 5644 5640 5636 5632 5628 5625 5621 5617 5613